Time,TemperatureF,DewpointF,PressureIn,WindDirection,WindDirectionDegrees,WindSpeedMPH,WindSpeedGustMPH,Humidity,HourlyPrecipIn,Conditions,Clouds,dailyrainin,SoftwareType,DateUTC
2013-01-30 00:02:00,33.0,32.0,29.55,North,360,4.0,-999.0,95,-99.99,,,-99.99,,2013-01-30 06:02:00,
2013-01-30 00:11:00,33.0,32.0,29.55,North,360,4.0,-999.0,95,-99.99,,,-99.99,,2013-01-30 06:11:00,
2013-01-30 00:21:00,33.0,32.0,29.57,North,360,3.0,-999.0,95,-99.99,,,-99.99,,2013-01-30 06:21:00,
2013-01-30 00:32:00,33.0,32.0,29.56,North,360,4.0,-999.0,95,-99.99,,,-99.99,,2013-01-30 06:32:00,
2013-01-30 00:42:00,33.0,32.0,29.56,North,360,4.0,-999.0,95,-99.99,,,-99.99,,2013-01-30 06:42:00,
2013-01-30 00:51:00,33.0,32.0,29.54,North,360,5.0,-999.0,95,-99.99,,,-99.99,,2013-01-30 06:51:00,
2013-01-30 01:02:00,33.0,32.0,29.54,North,360,5.0,-999.0,95,-99.99,,,-99.99,,2013-01-30 07:02:00,
2013-01-30 01:11:00,33.0,32.0,29.54,North,360,5.0,-999.0,95,-99.99,,,-99.99,,2013-01-30 07:11:00,
2013-01-30 01:21:00,33.0,32.0,29.56,North,360,0.0,-999.0,95,-99.99,,,-99.99,,2013-01-30 07:21:00,
2013-01-30 01:32:00,32.0,31.0,29.54,North,360,0.0,-999.0,95,-99.99,,,-99.99,,2013-01-30 07:32:00,
2013-01-30 01:42:00,32.0,31.0,29.54,North,360,0.0,-999.0,95,-99.99,,,-99.99,,2013-01-30 07:42:00,
2013-01-30 01:52:00,32.0,31.0,29.56,North,360,0.0,-999.0,95,-99.99,,,-99.99,,2013-01-30 07:52:00,
2013-01-30 02:01:00,32.0,31.0,29.54,North,360,0.0,-999.0,95,-99.99,,,-99.99,,2013-01-30 08:01:00,
2013-01-30 02:11:00,32.0,31.0,29.54,North,360,0.0,-999.0,95,-99.99,,,-99.99,,2013-01-30 08:11:00,
2013-01-30 02:21:00,32.0,31.0,29.55,North,360,0.0,-999.0,95,-99.99,,,-99.99,,2013-01-30 08:21:00,
2013-01-30 02:32:00,32.0,31.0,29.57,North,360,0.0,-999.0,95,-99.99,,,-99.99,,2013-01-30 08:32:00,
2013-01-30 02:42:00,32.0,31.0,29.57,North,360,0.0,-999.0,95,-99.99,,,-99.99,,2013-01-30 08:42:00,
2013-01-30 02:52:00,32.0,31.0,29.59,North,360,0.0,-999.0,95,-99.99,,,-99.99,,2013-01-30 08:52:00,
2013-01-30 03:01:00,32.0,31.0,29.59,North,350,0.0,-999.0,95,-99.99,,,-99.99,,2013-01-30 09:01:00,
2013-01-30 03:11:00,32.0,31.0,29.59,North,350,0.0,-999.0,95,-99.99,,,-99.99,,2013-01-30 09:11:00,
2013-01-30 03:21:00,31.0,30.0,29.59,North,355,0.0,-999.0,95,-99.99,,,-99.99,,2013-01-30 09:21:00,
2013-01-30 03:32:00,31.0,30.0,29.60,North,355,0.0,-999.0,95,-99.99,,,-99.99,,2013-01-30 09:32:00,
2013-01-30 03:42:00,31.0,30.0,29.60,North,355,0.0,-999.0,95,-99.99,,,-99.99,,2013-01-30 09:42:00,
2013-01-30 03:51:00,30.0,29.0,29.60,North,360,0.0,-999.0,95,-99.99,,,-99.99,,2013-01-30 09:51:00,
2013-01-30 04:01:00,30.0,29.0,29.60,North,355,1.0,-999.0,95,-99.99,,,-99.99,,2013-01-30 10:01:00,
2013-01-30 04:11:00,30.0,29.0,29.60,North,355,1.0,-999.0,95,-99.99,,,-99.99,,2013-01-30 10:11:00,
2013-01-30 04:21:00,29.0,28.0,29.59,North,360,8.0,-999.0,95,-99.99,,,-99.99,,2013-01-30 10:21:00,
2013-01-30 04:32:00,29.0,28.0,29.59,North,360,8.0,-999.0,95,-99.99,,,-99.99,,2013-01-30 10:32:00,
2013-01-30 04:41:00,29.0,28.0,29.59,North,360,8.0,-999.0,95,-99.99,,,-99.99,,2013-01-30 10:41:00,
2013-01-30 04:52:00,29.0,28.0,29.59,North,360,8.0,-999.0,95,-99.99,,,-99.99,,2013-01-30 10:52:00,
2013-01-30 05:22:00,28.0,27.0,29.62,North,360,5.0,-999.0,95,-99.99,,,-99.99,,2013-01-30 11:22:00,
2013-01-30 05:33:00,28.0,27.0,29.63,North,349,0.0,-999.0,95,-99.99,,,-99.99,,2013-01-30 11:33:00,
2013-01-30 05:42:00,28.0,27.0,29.63,North,349,0.0,-999.0,95,-99.99,,,-99.99,,2013-01-30 11:42:00,
2013-01-30 05:52:00,28.0,27.0,29.63,North,349,0.0,-999.0,95,-99.99,,,-99.99,,2013-01-30 11:52:00,
2013-01-30 06:02:00,28.0,27.0,29.65,NNW,344,0.0,-999.0,95,-99.99,,,-99.99,,2013-01-30 12:02:00,
2013-01-30 06:12:00,28.0,27.0,29.65,NNW,344,0.0,-999.0,95,-99.99,,,-99.99,,2013-01-30 12:12:00,
2013-01-30 06:22:00,28.0,27.0,29.66,NNW,344,0.0,-999.0,95,-99.99,,,-99.99,,2013-01-30 12:22:00,
2013-01-30 06:32:00,27.0,26.0,29.66,North,360,6.0,-999.0,95,-99.99,,,-99.99,,2013-01-30 12:32:00,
2013-01-30 06:42:00,27.0,26.0,29.66,North,360,6.0,-999.0,95,-99.99,,,-99.99,,2013-01-30 12:42:00,
2013-01-30 07:03:00,26.0,25.0,29.67,North,5,5.0,-999.0,95,-99.99,,,-99.99,,2013-01-30 13:03:00,
2013-01-30 07:12:00,26.0,25.0,29.67,North,5,5.0,-999.0,95,-99.99,,,-99.99,,2013-01-30 13:12:00,
2013-01-30 07:23:00,26.0,25.0,29.70,North,5,3.0,-999.0,95,-99.99,,,-99.99,,2013-01-30 13:23:00,
2013-01-30 07:33:00,26.0,25.0,29.70,North,5,3.0,-999.0,95,-99.99,,,-99.99,,2013-01-30 13:33:00,
2013-01-30 07:42:00,26.0,25.0,29.70,North,5,3.0,-999.0,95,-99.99,,,-99.99,,2013-01-30 13:42:00,
2013-01-30 07:52:00,25.0,24.0,29.72,North,5,4.0,-999.0,95,-99.99,,,-99.99,,2013-01-30 13:52:00,
2013-01-30 08:02:00,24.0,23.0,29.74,North,5,3.0,-999.0,95,-99.99,,,-99.99,,2013-01-30 14:02:00,
2013-01-30 08:12:00,24.0,23.0,29.74,North,5,3.0,-999.0,95,-99.99,,,-99.99,,2013-01-30 14:12:00,
2013-01-30 08:22:00,24.0,23.0,29.75,North,5,3.0,-999.0,95,-99.99,,,-99.99,,2013-01-30 14:22:00,
2013-01-30 08:33:00,24.0,23.0,29.76,North,5,2.0,-999.0,94,-99.99,,,-99.99,,2013-01-30 14:33:00,
2013-01-30 08:42:00,24.0,23.0,29.76,North,5,2.0,-999.0,94,-99.99,,,-99.99,,2013-01-30 14:42:00,
2013-01-30 08:52:00,24.0,23.0,29.76,NNE,13,1.0,-999.0,95,-99.99,,,-99.99,,2013-01-30 14:52:00,
2013-01-30 09:03:00,24.0,23.0,29.78,North,5,2.0,-999.0,95,-99.99,,,-99.99,,2013-01-30 15:03:00,
2013-01-30 09:12:00,24.0,23.0,29.78,North,5,2.0,-999.0,95,-99.99,,,-99.99,,2013-01-30 15:12:00,
2013-01-30 09:23:00,25.0,24.0,29.78,North,5,1.0,-999.0,94,-99.99,,,-99.99,,2013-01-30 15:23:00,
2013-01-30 09:33:00,25.0,24.0,29.78,North,5,1.0,-999.0,94,-99.99,,,-99.99,,2013-01-30 15:33:00,
2013-01-30 09:43:00,25.0,24.0,29.78,North,5,1.0,-999.0,94,-99.99,,,-99.99,,2013-01-30 15:43:00,
2013-01-30 09:53:00,25.0,24.0,29.79,NNE,14,1.0,-999.0,95,-99.99,,,-99.99,,2013-01-30 15:53:00,
2013-01-30 10:03:00,26.0,25.0,29.80,North,5,1.0,-999.0,94,-99.99,,,-99.99,,2013-01-30 16:03:00,
2013-01-30 10:12:00,26.0,25.0,29.80,North,5,1.0,-999.0,94,-99.99,,,-99.99,,2013-01-30 16:12:00,
2013-01-30 10:23:00,26.0,25.0,29.80,North,5,2.0,-999.0,94,-99.99,,,-99.99,,2013-01-30 16:23:00,
2013-01-30 10:32:00,26.0,25.0,29.81,NW,320,1.0,-999.0,94,-99.99,,,-99.99,,2013-01-30 16:32:00,
2013-01-30 10:42:00,26.0,25.0,29.81,NW,320,1.0,-999.0,94,-99.99,,,-99.99,,2013-01-30 16:42:00,
2013-01-30 10:52:00,26.0,25.0,29.81,NW,320,1.0,-999.0,94,-99.99,,,-99.99,,2013-01-30 16:52:00,
2013-01-30 11:02:00,27.0,25.0,29.83,North,5,1.0,-999.0,93,-99.99,,,-99.99,,2013-01-30 17:02:00,
2013-01-30 11:12:00,27.0,25.0,29.83,North,5,1.0,-999.0,93,-99.99,,,-99.99,,2013-01-30 17:12:00,
2013-01-30 11:22:00,28.0,26.0,29.83,North,5,3.0,-999.0,92,-99.99,,,-99.99,,2013-01-30 17:22:00,
2013-01-30 11:33:00,28.0,25.0,29.83,North,5,2.0,-999.0,90,-99.99,,,-99.99,,2013-01-30 17:33:00,
2013-01-30 11:42:00,28.0,25.0,29.83,North,5,2.0,-999.0,90,-99.99,,,-99.99,,2013-01-30 17:42:00,
2013-01-30 11:53:00,28.0,25.0,29.84,NNE,22,1.0,-999.0,88,-99.99,,,-99.99,,2013-01-30 17:53:00,
2013-01-30 12:02:00,28.0,24.0,29.85,NNW,346,1.0,-999.0,86,-99.99,,,-99.99,,2013-01-30 18:02:00,
2013-01-30 12:12:00,28.0,24.0,29.85,NNW,346,1.0,-999.0,86,-99.99,,,-99.99,,2013-01-30 18:12:00,
2013-01-30 12:22:00,28.0,24.0,29.85,North,5,1.0,-999.0,85,-99.99,,,-99.99,,2013-01-30 18:22:00,
2013-01-30 12:33:00,28.0,24.0,29.85,North,5,2.0,-999.0,84,-99.99,,,-99.99,,2013-01-30 18:33:00,
2013-01-30 12:42:00,28.0,24.0,29.85,North,5,2.0,-999.0,84,-99.99,,,-99.99,,2013-01-30 18:42:00,
2013-01-30 12:52:00,27.0,23.0,29.85,North,10,3.0,-999.0,83,-99.99,,,-99.99,,2013-01-30 18:52:00,
2013-01-30 13:02:00,28.0,23.0,29.86,North,9,1.0,-999.0,81,-99.99,,,-99.99,,2013-01-30 19:02:00,
2013-01-30 13:12:00,28.0,23.0,29.86,North,9,1.0,-999.0,81,-99.99,,,-99.99,,2013-01-30 19:12:00,
2013-01-30 13:22:00,27.0,22.0,29.86,North,5,4.0,-999.0,80,-99.99,,,-99.99,,2013-01-30 19:22:00,
2013-01-30 13:32:00,27.0,21.0,29.86,North,355,0.0,-999.0,79,-99.99,,,-99.99,,2013-01-30 19:32:00,
2013-01-30 13:43:00,27.0,21.0,29.86,North,355,0.0,-999.0,79,-99.99,,,-99.99,,2013-01-30 19:43:00,
2013-01-30 13:52:00,27.0,21.0,29.86,North,355,0.0,-999.0,79,-99.99,,,-99.99,,2013-01-30 19:52:00,
2013-01-30 14:03:00,26.0,21.0,29.87,NNW,348,1.0,-999.0,81,-99.99,,,-99.99,,2013-01-30 20:03:00,
2013-01-30 14:12:00,26.0,21.0,29.87,NNW,348,1.0,-999.0,81,-99.99,,,-99.99,,2013-01-30 20:12:00,
2013-01-30 14:22:00,26.0,21.0,29.88,NNW,346,1.0,-999.0,81,-99.99,,,-99.99,,2013-01-30 20:22:00,
2013-01-30 14:33:00,26.0,21.0,29.87,North,5,0.0,-999.0,81,-99.99,,,-99.99,,2013-01-30 20:33:00,
2013-01-30 14:42:00,26.0,21.0,29.87,North,5,0.0,-999.0,81,-99.99,,,-99.99,,2013-01-30 20:42:00,
2013-01-30 14:52:00,26.0,21.0,29.88,North,5,1.0,-999.0,80,-99.99,,,-99.99,,2013-01-30 20:52:00,
2013-01-30 15:03:00,26.0,20.0,29.88,SSW,204,0.0,-999.0,79,-99.99,,,-99.99,,2013-01-30 21:03:00,
2013-01-30 15:12:00,26.0,20.0,29.88,SSW,204,0.0,-999.0,79,-99.99,,,-99.99,,2013-01-30 21:12:00,
2013-01-30 15:23:00,26.0,20.0,29.89,NNW,333,0.0,-999.0,79,-99.99,,,-99.99,,2013-01-30 21:23:00,
2013-01-30 15:32:00,26.0,20.0,29.90,North,355,0.0,-999.0,77,-99.99,,,-99.99,,2013-01-30 21:32:00,
2013-01-30 15:42:00,26.0,20.0,29.90,North,355,0.0,-999.0,77,-99.99,,,-99.99,,2013-01-30 21:42:00,
2013-01-30 15:52:00,26.0,20.0,29.90,North,355,1.0,-999.0,77,-99.99,,,-99.99,,2013-01-30 21:52:00,
2013-01-30 16:03:00,26.0,20.0,29.91,North,355,1.0,-999.0,77,-99.99,,,-99.99,,2013-01-30 22:03:00,
2013-01-30 16:12:00,26.0,20.0,29.91,North,355,1.0,-999.0,77,-99.99,,,-99.99,,2013-01-30 22:12:00,
2013-01-30 16:22:00,26.0,20.0,29.91,NNW,342,1.0,-999.0,77,-99.99,,,-99.99,,2013-01-30 22:22:00,
2013-01-30 16:32:00,26.0,19.0,29.91,NNW,348,1.0,-999.0,75,-99.99,,,-99.99,,2013-01-30 22:32:00,
2013-01-30 16:42:00,26.0,19.0,29.91,NNW,348,1.0,-999.0,75,-99.99,,,-99.99,,2013-01-30 22:42:00,
2013-01-30 16:52:00,26.0,19.0,29.91,WNW,294,0.0,-999.0,76,-99.99,,,-99.99,,2013-01-30 22:52:00,
2013-01-30 17:02:00,25.0,18.0,29.92,North,355,1.0,-999.0,74,-99.99,,,-99.99,,2013-01-30 23:02:00,
2013-01-30 17:12:00,25.0,18.0,29.92,North,355,1.0,-999.0,74,-99.99,,,-99.99,,2013-01-30 23:12:00,
2013-01-30 17:22:00,25.0,18.0,29.92,North,9,1.0,-999.0,74,-99.99,,,-99.99,,2013-01-30 23:22:00,
2013-01-30 17:32:00,24.0,17.0,29.94,NNE,13,0.0,-999.0,75,-99.99,,,-99.99,,2013-01-30 23:32:00,
2013-01-30 17:42:00,24.0,17.0,29.94,NNE,13,0.0,-999.0,75,-99.99,,,-99.99,,2013-01-30 23:42:00,
2013-01-30 17:52:00,24.0,18.0,29.94,North,355,1.0,-999.0,76,-99.99,,,-99.99,,2013-01-30 23:52:00,
2013-01-30 18:02:00,24.0,18.0,29.95,NNW,339,0.0,-999.0,77,-99.99,,,-99.99,,2013-01-31 00:02:00,
2013-01-30 18:11:00,24.0,18.0,29.95,NNW,339,0.0,-999.0,77,-99.99,,,-99.99,,2013-01-31 00:11:00,
2013-01-30 18:22:00,24.0,19.0,29.96,North,355,0.0,-999.0,80,-99.99,,,-99.99,,2013-01-31 00:22:00,
2013-01-30 18:32:00,24.0,19.0,29.96,NNW,347,0.0,-999.0,81,-99.99,,,-99.99,,2013-01-31 00:32:00,
2013-01-30 18:42:00,24.0,19.0,29.96,NNW,347,0.0,-999.0,81,-99.99,,,-99.99,,2013-01-31 00:42:00,
2013-01-30 18:52:00,24.0,19.0,29.97,SSW,211,0.0,-999.0,81,-99.99,,,-99.99,,2013-01-31 00:52:00,
2013-01-30 19:02:00,24.0,19.0,29.97,SSW,211,0.0,-999.0,81,-99.99,,,-99.99,,2013-01-31 01:02:00,
2013-01-30 19:11:00,24.0,19.0,29.97,SSW,211,0.0,-999.0,81,-99.99,,,-99.99,,2013-01-31 01:11:00,
2013-01-30 19:21:00,23.0,17.0,29.98,North,355,0.0,-999.0,79,-99.99,,,-99.99,,2013-01-31 01:21:00,
2013-01-30 19:32:00,23.0,17.0,29.98,NNW,340,0.0,-999.0,79,-99.99,,,-99.99,,2013-01-31 01:32:00,
2013-01-30 19:42:00,23.0,17.0,29.98,NNW,340,0.0,-999.0,79,-99.99,,,-99.99,,2013-01-31 01:42:00,
2013-01-30 19:52:00,23.0,17.0,29.98,SW,236,0.0,-999.0,77,-99.99,,,-99.99,,2013-01-31 01:52:00,
2013-01-30 20:01:00,23.0,17.0,29.98,WNW,294,0.0,-999.0,78,-99.99,,,-99.99,,2013-01-31 02:01:00,
2013-01-30 20:11:00,23.0,17.0,29.98,WNW,294,0.0,-999.0,78,-99.99,,,-99.99,,2013-01-31 02:11:00,
2013-01-30 20:21:00,23.0,17.0,29.98,SW,232,0.0,-999.0,77,-99.99,,,-99.99,,2013-01-31 02:21:00,
2013-01-30 20:32:00,23.0,17.0,29.99,SW,234,0.0,-999.0,77,-99.99,,,-99.99,,2013-01-31 02:32:00,
2013-01-30 20:41:00,23.0,17.0,29.99,SW,234,0.0,-999.0,77,-99.99,,,-99.99,,2013-01-31 02:41:00,
2013-01-30 20:52:00,23.0,17.0,29.99,SW,234,0.0,-999.0,77,-99.99,,,-99.99,,2013-01-31 02:52:00,
2013-01-30 21:03:00,22.0,16.0,30.00,SW,234,0.0,-999.0,78,-99.99,,,-99.99,,2013-01-31 03:03:00,
2013-01-30 21:11:00,22.0,16.0,30.00,SW,234,0.0,-999.0,78,-99.99,,,-99.99,,2013-01-31 03:11:00,
2013-01-30 21:21:00,21.0,15.0,30.01,SW,234,0.0,-999.0,78,-99.99,,,-99.99,,2013-01-31 03:21:00,
2013-01-30 21:32:00,21.0,15.0,30.00,SW,214,0.0,-999.0,78,-99.99,,,-99.99,,2013-01-31 03:32:00,
2013-01-30 21:41:00,21.0,15.0,30.00,SW,214,0.0,-999.0,78,-99.99,,,-99.99,,2013-01-31 03:41:00,
2013-01-30 21:51:00,20.0,14.0,30.00,SW,214,0.0,-999.0,78,-99.99,,,-99.99,,2013-01-31 03:51:00,
2013-01-30 22:02:00,20.0,15.0,29.99,SW,214,0.0,-999.0,79,-99.99,,,-99.99,,2013-01-31 04:02:00,
2013-01-30 22:11:00,20.0,15.0,29.99,SW,214,0.0,-999.0,79,-99.99,,,-99.99,,2013-01-31 04:11:00,
2013-01-30 22:22:00,19.0,14.0,29.99,SW,214,0.0,-999.0,79,-99.99,,,-99.99,,2013-01-31 04:22:00,
2013-01-30 22:31:00,19.0,14.0,29.99,SW,214,0.0,-999.0,80,-99.99,,,-99.99,,2013-01-31 04:31:00,
2013-01-30 22:41:00,19.0,14.0,29.99,SW,214,0.0,-999.0,80,-99.99,,,-99.99,,2013-01-31 04:41:00,
2013-01-30 22:51:00,18.0,13.0,29.99,SW,214,0.0,-999.0,80,-99.99,,,-99.99,,2013-01-31 04:51:00,
2013-01-30 23:03:00,18.0,13.0,29.98,SW,214,0.0,-999.0,81,-99.99,,,-99.99,,2013-01-31 05:03:00,
2013-01-30 23:11:00,18.0,13.0,29.98,SW,214,0.0,-999.0,81,-99.99,,,-99.99,,2013-01-31 05:11:00,
2013-01-30 23:22:00,17.0,12.0,29.98,SW,214,0.0,-999.0,82,-99.99,,,-99.99,,2013-01-31 05:22:00,
2013-01-30 23:32:00,17.0,12.0,29.98,SW,214,0.0,-999.0,82,-99.99,,,-99.99,,2013-01-31 05:32:00,
2013-01-30 23:41:00,17.0,12.0,29.98,SW,214,0.0,-999.0,82,-99.99,,,-99.99,,2013-01-31 05:41:00,
2013-01-30 23:52:00,17.0,12.0,29.98,SW,214,0.0,-999.0,82,-99.99,,,-99.99,,2013-01-31 05:52:00,